Cody, WY

8:57 PM MST on February 12, 2016 (GMT -0700)
Yellowstone Regional

Weather History for KCOD - June, 2013

Change the Weather History Date:

Monday, June 24, 2013

  Actual Average Record
Temperature  
Mean Temperature 66 °F -  
Max Temperature 82 °F 79 °F 98 °F (2012)
Min Temperature 51 °F 51 °F 35 °F (1967)
Cooling Degree Days 2    
Growing Degree Days 16 (Base 50)    
Moisture  
Dew Point 40 °F    
Average Humidity 39    
Maximum Humidity 63    
Minimum Humidity 20    
Precipitation  
Precipitation 0.00 in - - ()
Sea Level Pressure  
Sea Level Pressure 29.74 in    
Wind  
Wind Speed 5 mph (WSW)    
Max Wind Speed 20 mph    
Max Gust Speed 33 mph    
Visibility 10 miles    
Events Thunderstorm    
Averages and records for this station are not official NWS values.
T = Trace of Precipitation, MM = Missing Value Source: NWS Daily Summary

Daily Weather History Graph

Daily Weather History Graph

Search for Another Location

Airport or City:

Trip Planner

Search our weather history database for the weather conditions in past years. The results will help you decide how hot, cold, wet, or windy it might be!

Date:

Astronomy

Jun. 24, 2013 Rise Set
Actual Time 5:32 AM MDT 9:04 PM MDT
Civil Twilight 4:55 AM MDT 9:41 PM MDT
Nautical Twilight 4:06 AM MDT 10:30 PM MDT
Astronomical Twilight 3:03 AM MDT 11:33 PM MDT
Moon 10:03 PM MDT (6/24) 7:08 AM MDT (6/24)
Length of Visible Light 16h 46m
Length of Day
15h 32m
Full, 97% of the Moon is Illuminated
Jun 24
Full
Jun 29
Last Quarter
Jul 8
New
Jul 15
First Quarter
Jul 22
Full

Hourly Weather History & Observations

Time (MDT) Temp. Dew Point Humidity Pressure Visibility Wind Dir Wind Speed Gust Speed Precip Events Conditions
12:15 AM 59.0 °F 42.8 °F 55% 29.82 in 10.0 mi Calm Calm - N/A   Clear
12:35 AM 55.4 °F 41.0 °F 58% 29.81 in 10.0 mi SSW 3.5 mph - N/A   Clear
12:55 AM 55.4 °F 39.2 °F 54% 29.81 in 10.0 mi Calm Calm - N/A   Clear
1:15 AM 53.6 °F 37.4 °F 54% 29.81 in 10.0 mi South 4.6 mph - N/A   Clear
1:55 AM 55.4 °F 37.4 °F 51% 29.80 in 10.0 mi SSW 8.1 mph - N/A   Clear
2:15 AM 55.4 °F 35.6 °F 47% 29.79 in 10.0 mi SW 8.1 mph - N/A   Clear
2:35 AM 55.4 °F 35.6 °F 47% 29.78 in 10.0 mi SW 4.6 mph - N/A   Clear
2:55 AM 57.2 °F 35.6 °F 44% 29.78 in 10.0 mi SW 8.1 mph - N/A   Clear
3:15 AM 55.4 °F 35.6 °F 47% 29.78 in 10.0 mi SSW 3.5 mph - N/A   Clear
3:35 AM 55.4 °F 33.8 °F 44% 29.77 in 10.0 mi SSW 6.9 mph - N/A   Clear
3:55 AM 51.8 °F 35.6 °F 54% 29.77 in 10.0 mi Calm Calm - N/A   Clear
4:15 AM 53.6 °F 35.6 °F 51% 29.77 in 10.0 mi SW 3.5 mph - N/A   Clear
4:36 AM 51.8 °F 37.4 °F 58% 29.77 in 10.0 mi Calm Calm - N/A   Clear
4:55 AM 51.8 °F 37.4 °F 58% 29.77 in 10.0 mi Calm Calm - N/A   Clear
5:15 AM 51.8 °F 37.4 °F 58% 29.78 in 10.0 mi Calm Calm - N/A   Clear
5:35 AM 51.8 °F 35.6 °F 54% 29.77 in 10.0 mi South 5.8 mph - N/A   Clear
6:15 AM 53.6 °F 35.6 °F 51% 29.78 in 10.0 mi South 3.5 mph - N/A   Clear
6:35 AM 57.2 °F 37.4 °F 48% 29.78 in 10.0 mi SSW 4.6 mph - N/A   Clear
6:55 AM 60.8 °F 35.6 °F 39% 29.77 in 10.0 mi SW 3.5 mph - N/A   Clear
7:15 AM 60.8 °F 35.6 °F 39% 29.77 in 10.0 mi West 4.6 mph - N/A   Clear
7:35 AM 57.2 °F 44.6 °F 63% 29.78 in 10.0 mi Calm Calm - N/A   Clear
7:55 AM 57.2 °F 44.6 °F 63% 29.78 in 10.0 mi Calm Calm - N/A   Clear
8:15 AM 60.8 °F 41.0 °F 48% 29.78 in 10.0 mi SW 4.6 mph - N/A   Clear
8:35 AM 62.6 °F 37.4 °F 39% 29.78 in 10.0 mi SW 5.8 mph - N/A   Clear
8:55 AM 60.8 °F 44.6 °F 55% 29.77 in 10.0 mi Calm Calm - N/A   Clear
9:15 AM 62.6 °F 42.8 °F 48% 29.78 in 10.0 mi Calm Calm - N/A   Clear
9:35 AM 64.4 °F 41.0 °F 42% 29.78 in 10.0 mi SW 4.6 mph - N/A   Clear
9:55 AM 66.2 °F 39.2 °F 37% 29.77 in 10.0 mi Calm Calm - N/A   Clear
10:15 AM 68.0 °F 41.0 °F 37% 29.76 in 10.0 mi Calm Calm - N/A   Clear
10:35 AM 69.8 °F 44.6 °F 40% 29.76 in 10.0 mi NE 4.6 mph - N/A   Clear
11:15 AM 73.4 °F 37.4 °F 27% 29.75 in 10.0 mi Calm Calm - N/A   Clear
11:35 AM 75.2 °F 39.2 °F 27% 29.74 in 10.0 mi East 3.5 mph - N/A   Clear
11:55 AM 77.0 °F 39.2 °F 26% 29.73 in 10.0 mi NE 4.6 mph - N/A   Clear
12:15 PM 75.2 °F 46.4 °F 36% 29.72 in 10.0 mi NE 10.4 mph - N/A   Mostly Cloudy
12:35 PM 78.8 °F 42.8 °F 28% 29.70 in 10.0 mi East 9.2 mph - N/A   Partly Cloudy
12:55 PM 78.8 °F 35.6 °F 21% 29.70 in 10.0 mi East 8.1 mph 31.1 mph N/A Thunderstorm Scattered Clouds
1:15 PM 75.2 °F 39.2 °F 27% 29.68 in 10.0 mi East 18.4 mph - N/A Thunderstorm Thunderstorm
1:35 PM 78.8 °F 42.8 °F 28% 29.69 in 10.0 mi East 15.0 mph 20.7 mph N/A   Partly Cloudy
1:55 PM 82.4 °F 39.2 °F 21% 29.70 in 10.0 mi ESE 12.7 mph - N/A Thunderstorm Clear
2:35 PM 77.0 °F 42.8 °F 29% 29.72 in 10.0 mi West 11.5 mph 23.0 mph N/A   Clear
2:55 PM 78.8 °F 42.8 °F 28% 29.74 in 10.0 mi WSW 19.6 mph 29.9 mph N/A   Partly Cloudy
3:15 PM 77.0 °F 39.2 °F 26% 29.73 in 10.0 mi WSW 19.6 mph 33.4 mph N/A   Mostly Cloudy
3:35 PM 75.2 °F 37.4 °F 25% 29.72 in 10.0 mi West 12.7 mph 26.5 mph N/A   Mostly Cloudy
3:55 PM 75.2 °F 39.2 °F 27% 29.72 in 10.0 mi SW 15.0 mph 24.2 mph N/A   Mostly Cloudy
4:15 PM 78.8 °F 37.4 °F 23% 29.70 in 10.0 mi East 8.1 mph - N/A   Partly Cloudy
4:35 PM 78.8 °F 35.6 °F 21% 29.69 in 10.0 mi South 4.6 mph - N/A   Clear
4:55 PM 80.6 °F 35.6 °F 20% 29.68 in 10.0 mi NW 3.5 mph - N/A   Clear
5:15 PM 78.8 °F 39.2 °F 24% 29.67 in 10.0 mi NNW 4.6 mph - N/A   Clear
5:35 PM 78.8 °F 44.6 °F 30% 29.67 in 10.0 mi Calm Calm - N/A   Clear
5:55 PM 77.0 °F 42.8 °F 29% 29.67 in 10.0 mi NW 9.2 mph - N/A   Clear
6:15 PM 75.2 °F 44.6 °F 34% 29.67 in 10.0 mi NNW 8.1 mph - N/A   Clear
6:35 PM 75.2 °F 44.6 °F 34% 29.67 in 10.0 mi NNW 9.2 mph - N/A   Clear
6:55 PM 75.2 °F 42.8 °F 31% 29.67 in 10.0 mi NNW 6.9 mph - N/A   Clear
7:35 PM 73.4 °F 44.6 °F 36% 29.68 in 10.0 mi NNE 5.8 mph - N/A   Clear
7:55 PM 73.4 °F 44.6 °F 36% 29.68 in 10.0 mi NNE 5.8 mph - N/A   Clear
8:15 PM 73.4 °F 42.8 °F 33% 29.69 in 10.0 mi Calm Calm - N/A   Clear
8:35 PM 73.4 °F 42.8 °F 33% 29.69 in 10.0 mi West 4.6 mph - N/A   Clear
8:55 PM 73.4 °F 39.2 °F 29% 29.70 in 10.0 mi SW 10.4 mph 17.3 mph N/A   Partly Cloudy
9:35 PM 73.4 °F 39.2 °F 29% 29.72 in 10.0 mi West 4.6 mph - N/A   Clear
9:55 PM 71.6 °F 39.2 °F 31% 29.73 in 10.0 mi SW 9.2 mph - N/A   Partly Cloudy
10:35 PM 69.8 °F 42.8 °F 38% 29.74 in 10.0 mi WNW 9.2 mph 19.6 mph N/A   Mostly Cloudy
10:55 PM 69.8 °F 42.8 °F 38% 29.74 in 10.0 mi NW 16.1 mph 25.3 mph N/A   Mostly Cloudy
11:15 PM 69.8 °F 42.8 °F 38% 29.74 in 10.0 mi WNW 12.7 mph 20.7 mph N/A   Mostly Cloudy
11:35 PM 69.8 °F 41.0 °F 35% 29.75 in 10.0 mi West 9.2 mph - N/A   Partly Cloudy
11:55 PM 69.8 °F 41.0 °F 35% 29.74 in 10.0 mi West 6.9 mph 21.9 mph N/A   Scattered Clouds